Погода в Сальнице

Украина / Винницкая область     49°44′11″N   28°01′04″E
темп.,
°C
ветер,
м/с
пор.,
м/с
влажн.,
%
обл.,
%
осадки,
мм/ч
давл.,
гПа
погр.,
м
26 сентября, вс
вс2600:00+14з71577100 0.0 1017591
03:00+14зсз6137992 0.1 1018518
06:00+13зсз51187100 0.0 1018427
09:00+14сз598938 0.1 1019577
12:00+17сз7106353 0.1 10201307
15:00+18сз784921 0.1 10201419
18:00+16ссз485351 0.0 1020334
21:00+11с3571100 0.0 102280
27 сентября, пн
пн2700:00+9ссв237947 0.0 102331
03:00+8ссв2287100 0.0 102320
06:00+6ссв33925 0.0 102444
09:00+9св34803 0.0 1024252
12:00+14св34550 0.0 1023941
15:00+15св44470 0.0 10221233
18:00+13св46580 0.0 1022350
21:00+8всв510805 0.0 1024289
28 сентября, вт
вт2800:00+6всв37907 0.0 1025128
03:00+5всв349074 0.0 102562
06:00+5всв33923 0.0 102548
09:00+8всв35792 0.0 1025240
12:00+13в455825 0.0 10251230
15:00+14всв3448100 0.1 10251678
18:00+14всв3447100 0.0 1025146
21:00+11всв3655100 0.0 1027163
29 сентября, ср
ср2900:00+10в3763100 0.0 1028206
03:00+10в3773100 0.0 1029307
06:00+8в478198 0.0 1029327
09:00+8вюв58815 0.0 1030391
12:00+13вюв565755 0.0 10301267
15:00+13вюв4551100 0.0 10301561
18:00+12вюв4551100 0.0 1030453
21:00+11в5855100 0.0 1031392
30 сентября, чт
чт3000:00+7вюв410715 0.0 1032262
03:00+5юв49750 0.0 1032186
06:00+4юв38800 0.0 1032147
09:00+7юв47665 0.0 1033290
12:00+13юв56483 0.0 10321101
15:00+15юв55413 0.0 10311392
18:00+13юв36465 0.0 1031161
21:00+8юв46515 0.0 103284